N1EZ KDFW-KSDL

Flight info

Callsign N1EZ
Flight time 2h 39m
Altitude 43000
Route WSTEX2 CIKAN EWM SSO SUNSS8
Aircraft HDJT/L-SABDGRWY/H

Departure

Time 2026-05-09 01:00
Airport Dallas Fort Worth International Airport (KDFW)

Arrival

Time 2026-05-09 03:39
Airport Scottsdale Airport (KSDL)
Time Latitude Longitude Altitude Speed Heading
2026-05-09 00:34 32.91260 -97.03491 577 ft 0 kts 272°
2026-05-09 00:52 32.91260 -97.03494 577 ft 1 kts 272°
2026-05-09 00:52 32.91242 -97.03515 577 ft 7 kts 187°
2026-05-09 00:52 32.91191 -97.03516 577 ft 7 kts 180°
2026-05-09 00:52 32.91154 -97.03497 577 ft 5 kts 99°
2026-05-09 00:53 32.91143 -97.03450 577 ft 7 kts 135°
2026-05-09 00:53 32.91095 -97.03444 577 ft 9 kts 181°
2026-05-09 00:53 32.91025 -97.03447 577 ft 11 kts 196°
2026-05-09 00:53 32.91008 -97.03531 578 ft 13 kts 271°
2026-05-09 00:54 32.91008 -97.03640 582 ft 12 kts 270°
2026-05-09 00:54 32.91008 -97.03716 591 ft 7 kts 270°
2026-05-09 00:54 32.91008 -97.03766 596 ft 6 kts 270°
2026-05-09 00:54 32.91009 -97.03860 603 ft 15 kts 270°
2026-05-09 00:55 32.91009 -97.04036 604 ft 26 kts 269°
2026-05-09 00:55 32.91011 -97.04254 606 ft 24 kts 269°
2026-05-09 00:55 32.91011 -97.04455 595 ft 26 kts 270°
2026-05-09 00:55 32.91012 -97.04609 595 ft 11 kts 270°
2026-05-09 00:56 32.91022 -97.04686 597 ft 9 kts 316°
2026-05-09 00:56 32.91093 -97.04706 599 ft 13 kts 359°
2026-05-09 00:56 32.91194 -97.04706 601 ft 16 kts
2026-05-09 00:56 32.91305 -97.04705 603 ft 16 kts
2026-05-09 00:57 32.91418 -97.04705 602 ft 16 kts
2026-05-09 00:57 32.91517 -97.04704 603 ft 12 kts
2026-05-09 00:57 32.91563 -97.04745 610 ft 7 kts 279°
2026-05-09 00:57 32.91565 -97.04799 605 ft 6 kts 270°
2026-05-09 00:58 32.91565 -97.04841 605 ft 4 kts 270°
2026-05-09 00:58 32.91565 -97.04872 606 ft 4 kts 270°
2026-05-09 00:58 32.91565 -97.04932 606 ft 11 kts 270°
2026-05-09 00:58 32.91565 -97.05038 606 ft 9 kts 258°
2026-05-09 00:59 32.91528 -97.05074 615 ft 6 kts 181°
2026-05-09 00:59 32.91367 -97.05075 607 ft 61 kts 180°
2026-05-09 00:59 32.90678 -97.05078 635 ft 128 kts 179°
2026-05-09 00:59 32.89768 -97.05083 1112 ft 138 kts 179°
2026-05-09 01:00 32.88790 -97.05103 1681 ft 145 kts 182°
2026-05-09 01:00 32.87682 -97.05188 1942 ft 174 kts 186°
2026-05-09 01:00 32.86378 -97.05298 2264 ft 197 kts 183°
2026-05-09 01:00 32.85023 -97.05341 3059 ft 193 kts 181°
2026-05-09 01:01 32.83618 -97.05351 3512 ft 212 kts 181°
2026-05-09 01:01 32.82127 -97.05356 4182 ft 216 kts 182°
2026-05-09 01:01 32.80606 -97.05364 4855 ft 222 kts 182°
2026-05-09 01:01 32.79048 -97.05380 5544 ft 227 kts 184°
2026-05-09 01:02 32.77447 -97.05394 6192 ft 233 kts 184°
2026-05-09 01:02 32.75817 -97.05398 6879 ft 235 kts 184°
2026-05-09 01:02 32.74189 -97.05520 7571 ft 234 kts 196°
2026-05-09 01:02 32.72669 -97.06164 8316 ft 230 kts 212°
2026-05-09 01:03 32.71375 -97.07256 9056 ft 228 kts 227°
2026-05-09 01:03 32.70394 -97.08707 9828 ft 225 kts 242°
2026-05-09 01:03 32.69786 -97.10377 10513 ft 224 kts 256°
2026-05-09 01:03 32.69428 -97.12181 11207 ft 226 kts 257°
2026-05-09 01:04 32.69112 -97.14015 11911 ft 228 kts 265°
2026-05-09 01:04 32.69074 -97.15901 12637 ft 229 kts 268°
2026-05-09 01:04 32.69030 -97.17805 13351 ft 232 kts 267°
2026-05-09 01:04 32.68983 -97.19729 14027 ft 234 kts 268°
2026-05-09 01:05 32.68944 -97.21681 14668 ft 237 kts 268°
2026-05-09 01:05 32.68906 -97.23653 15310 ft 240 kts 268°
2026-05-09 01:05 32.68826 -97.27646 16592 ft 246 kts 269°
2026-05-09 01:06 32.68783 -97.29691 17177 ft 250 kts 269°
2026-05-09 01:06 32.68741 -97.31768 17734 ft 253 kts 269°
2026-05-09 01:06 32.68697 -97.33864 18279 ft 256 kts 269°
2026-05-09 01:06 32.68652 -97.35987 18776 ft 259 kts 269°
2026-05-09 01:07 32.68606 -97.38133 19279 ft 261 kts 269°
2026-05-09 01:07 32.68560 -97.40302 19787 ft 264 kts 269°
2026-05-09 01:07 32.68513 -97.42493 20298 ft 267 kts 270°
2026-05-09 01:07 32.68465 -97.44707 20814 ft 270 kts 270°
2026-05-09 01:08 32.68415 -97.46943 21324 ft 273 kts 270°
2026-05-09 01:08 32.68365 -97.49209 21856 ft 275 kts 270°
2026-05-09 01:08 32.68314 -97.51501 22380 ft 279 kts 270°
2026-05-09 01:08 32.68263 -97.53782 22914 ft 282 kts 270°
2026-05-09 01:09 32.68210 -97.56119 23452 ft 285 kts 270°
2026-05-09 01:09 32.68157 -97.58479 23956 ft 286 kts 270°
2026-05-09 01:09 32.68102 -97.60842 24451 ft 286 kts 269°
2026-05-09 01:09 32.68049 -97.63199 24961 ft 286 kts 269°
2026-05-09 01:10 32.67992 -97.65558 25495 ft 285 kts 269°
2026-05-09 01:10 32.67933 -97.67908 26011 ft 284 kts 268°
2026-05-09 01:10 32.67878 -97.70252 26514 ft 284 kts 268°
2026-05-09 01:10 32.67823 -97.72596 26963 ft 284 kts 268°
2026-05-09 01:11 32.67691 -97.74932 27436 ft 284 kts 264°
2026-05-09 01:11 32.67501 -97.77260 27907 ft 284 kts 264°
2026-05-09 01:11 32.67324 -97.79589 28369 ft 283 kts 264°
2026-05-09 01:11 32.67147 -97.81921 28820 ft 283 kts 264°
2026-05-09 01:12 32.66966 -97.84248 29252 ft 284 kts 264°
2026-05-09 01:12 32.66783 -97.86580 29674 ft 284 kts 264°
2026-05-09 01:12 32.66602 -97.88911 30052 ft 284 kts 263°
2026-05-09 01:12 32.66419 -97.91249 30389 ft 284 kts 263°
2026-05-09 01:13 32.66239 -97.93545 30777 ft 282 kts 263°
2026-05-09 01:13 32.66058 -97.95857 31168 ft 280 kts 263°
2026-05-09 01:13 32.65877 -97.98146 31515 ft 279 kts 263°
2026-05-09 01:13 32.65695 -98.00445 31834 ft 279 kts 263°
2026-05-09 01:14 32.65514 -98.02733 32199 ft 278 kts 262°
2026-05-09 01:14 32.65334 -98.05013 32564 ft 276 kts 262°
2026-05-09 01:14 32.65154 -98.07271 32930 ft 274 kts 262°
2026-05-09 01:14 32.64975 -98.09518 33290 ft 272 kts 262°
2026-05-09 01:15 32.64797 -98.11749 33649 ft 271 kts 262°
2026-05-09 01:15 32.64619 -98.13964 33974 ft 269 kts 262°
2026-05-09 01:15 32.64442 -98.16168 34265 ft 267 kts 261°
2026-05-09 01:15 32.64266 -98.18363 34559 ft 266 kts 261°
2026-05-09 01:16 32.64093 -98.20509 34838 ft 264 kts 261°
2026-05-09 01:16 32.63918 -98.22671 35119 ft 262 kts 261°
2026-05-09 01:16 32.63745 -98.24823 35406 ft 260 kts 261°
2026-05-09 01:17 32.63400 -98.29083 35955 ft 258 kts 261°
2026-05-09 01:17 32.63229 -98.31193 36234 ft 256 kts 260°
2026-05-09 01:17 32.63061 -98.33260 36495 ft 254 kts 260°
2026-05-09 01:17 32.62891 -98.35346 36706 ft 255 kts 260°
2026-05-09 01:18 32.62718 -98.37448 36867 ft 257 kts 260°
2026-05-09 01:18 32.62547 -98.39550 37115 ft 255 kts 260°
2026-05-09 01:18 32.62376 -98.41641 37359 ft 254 kts 260°
2026-05-09 01:18 32.62205 -98.43725 37613 ft 253 kts 260°
2026-05-09 01:19 32.62035 -98.45793 37865 ft 251 kts 259°
2026-05-09 01:19 32.61865 -98.47854 38114 ft 250 kts 259°
2026-05-09 01:19 32.61695 -98.49899 38366 ft 249 kts 259°
2026-05-09 01:19 32.61527 -98.51934 38579 ft 247 kts 259°
2026-05-09 01:20 32.61358 -98.53966 38743 ft 247 kts 259°
2026-05-09 01:20 32.61191 -98.55965 38896 ft 247 kts 259°
2026-05-09 01:20 32.61023 -98.57995 39058 ft 247 kts 259°
2026-05-09 01:20 32.60852 -98.60031 39213 ft 247 kts 259°
2026-05-09 01:21 32.60683 -98.62060 39370 ft 247 kts 259°
2026-05-09 01:21 32.60513 -98.64090 39520 ft 247 kts 259°
2026-05-09 01:21 32.60342 -98.66122 39658 ft 247 kts 259°
2026-05-09 01:21 32.60172 -98.68146 39806 ft 247 kts 259°
2026-05-09 01:22 32.60001 -98.70169 39957 ft 247 kts 259°
2026-05-09 01:22 32.59830 -98.72193 40099 ft 247 kts 259°
2026-05-09 01:22 32.59657 -98.74232 40159 ft 250 kts 259°
2026-05-09 01:22 32.59484 -98.76282 40301 ft 250 kts 259°
2026-05-09 01:23 32.59310 -98.78332 40446 ft 250 kts 259°
2026-05-09 01:23 32.59136 -98.80380 40586 ft 249 kts 259°
2026-05-09 01:23 32.58961 -98.82426 40720 ft 250 kts 259°
2026-05-09 01:23 32.58786 -98.84476 40856 ft 249 kts 259°
2026-05-09 01:24 32.58613 -98.86497 40981 ft 249 kts 259°
2026-05-09 01:24 32.58437 -98.88544 41112 ft 249 kts 259°
2026-05-09 01:24 32.58261 -98.90591 41235 ft 250 kts 259°
2026-05-09 01:24 32.58085 -98.92635 41361 ft 249 kts 259°
2026-05-09 01:25 32.57908 -98.94683 41488 ft 249 kts 259°
2026-05-09 01:25 32.57732 -98.96730 41612 ft 249 kts 259°
2026-05-09 01:25 32.57554 -98.98774 41731 ft 249 kts 259°
2026-05-09 01:25 32.57377 -99.00817 41842 ft 249 kts 259°
2026-05-09 01:26 32.57200 -99.02858 41955 ft 249 kts 259°
2026-05-09 01:26 32.57022 -99.04903 42065 ft 249 kts 259°
2026-05-09 01:26 32.56843 -99.06944 42146 ft 249 kts 259°
2026-05-09 01:26 32.56665 -99.08988 42253 ft 249 kts 259°
2026-05-09 01:27 32.56484 -99.11040 42300 ft 252 kts 259°
2026-05-09 01:27 32.56303 -99.13106 42382 ft 252 kts 259°
2026-05-09 01:27 32.56124 -99.15149 42487 ft 252 kts 259°
2026-05-09 01:27 32.55942 -99.17217 42595 ft 252 kts 259°
2026-05-09 01:28 32.55759 -99.19284 42697 ft 252 kts 259°
2026-05-09 01:28 32.55576 -99.21353 42800 ft 252 kts 259°
2026-05-09 01:28 32.55391 -99.23433 42800 ft 255 kts 259°
2026-05-09 01:28 32.55204 -99.25540 42798 ft 258 kts 259°
2026-05-09 01:29 32.55015 -99.27667 42798 ft 261 kts 259°
2026-05-09 01:29 32.54823 -99.29814 42797 ft 264 kts 259°
2026-05-09 01:29 32.54630 -99.31987 42797 ft 266 kts 259°
2026-05-09 01:29 32.54460 -99.34186 42798 ft 269 kts 262°
2026-05-09 01:30 32.54339 -99.36382 42799 ft 272 kts 261°
2026-05-09 01:30 32.54204 -99.38626 42816 ft 274 kts 261°
2026-05-09 01:30 32.54067 -99.40892 42818 ft 276 kts 261°
2026-05-09 01:30 32.53931 -99.43168 42820 ft 278 kts 261°
2026-05-09 01:31 32.53795 -99.45462 42824 ft 280 kts 261°
2026-05-09 01:31 32.53656 -99.47769 42832 ft 281 kts 261°
2026-05-09 01:31 32.53516 -99.50091 42837 ft 283 kts 261°
2026-05-09 01:31 32.53375 -99.52427 42841 ft 285 kts 261°
2026-05-09 01:32 32.53233 -99.54785 42843 ft 287 kts 261°
2026-05-09 01:32 32.53089 -99.57154 42845 ft 289 kts 261°
2026-05-09 01:32 32.52945 -99.59505 42849 ft 290 kts 261°
2026-05-09 01:32 32.52800 -99.61896 42851 ft 292 kts 261°
2026-05-09 01:33 32.52652 -99.64301 42854 ft 293 kts 261°
2026-05-09 01:33 32.52503 -99.66715 42855 ft 294 kts 261°
2026-05-09 01:33 32.52354 -99.69134 42855 ft 295 kts 261°
2026-05-09 01:33 32.52203 -99.71569 42853 ft 296 kts 261°
2026-05-09 01:34 32.52052 -99.74008 42853 ft 297 kts 261°
2026-05-09 01:34 32.51900 -99.76454 42826 ft 298 kts 261°
2026-05-09 01:34 32.51747 -99.78903 42829 ft 299 kts 261°
2026-05-09 01:34 32.51593 -99.81363 42830 ft 299 kts 261°
2026-05-09 01:35 32.51437 -99.83830 42834 ft 300 kts 262°
2026-05-09 01:35 32.51281 -99.86299 42836 ft 301 kts 262°
2026-05-09 01:35 32.50969 -99.91235 42834 ft 303 kts 262°
2026-05-09 01:36 32.50651 -99.96225 42830 ft 304 kts 262°
2026-05-09 01:36 32.50329 -100.01237 42824 ft 305 kts 262°
2026-05-09 01:37 32.50007 -100.06234 42817 ft 306 kts 262°
2026-05-09 01:37 32.49679 -100.11277 42805 ft 307 kts 262°
2026-05-09 01:38 32.49348 -100.16336 42801 ft 308 kts 262°
2026-05-09 01:38 32.49015 -100.21402 42795 ft 309 kts 262°
2026-05-09 01:39 32.48678 -100.26482 42785 ft 310 kts 262°
2026-05-09 01:39 32.48339 -100.31586 42887 ft 311 kts 262°
2026-05-09 01:40 32.48059 -100.35841 42905 ft 312 kts 262°
2026-05-09 01:40 32.47722 -100.40974 42905 ft 313 kts 262°
2026-05-09 01:41 32.47381 -100.46122 42905 ft 313 kts 262°
2026-05-09 01:41 32.47040 -100.51229 42905 ft 314 kts 262°
2026-05-09 01:42 32.46694 -100.56384 42905 ft 314 kts 262°
2026-05-09 01:42 32.46346 -100.61550 42885 ft 315 kts 262°
2026-05-09 01:43 32.45994 -100.66724 42866 ft 316 kts 262°
2026-05-09 01:43 32.45639 -100.71921 42845 ft 317 kts 262°
2026-05-09 01:44 32.45281 -100.77126 42824 ft 317 kts 262°
2026-05-09 01:44 32.44923 -100.82304 42809 ft 318 kts 262°
2026-05-09 01:45 32.44559 -100.87538 42813 ft 319 kts 262°
2026-05-09 01:45 32.44193 -100.92767 42814 ft 319 kts 262°
2026-05-09 01:46 32.43824 -100.98006 42810 ft 319 kts 262°
2026-05-09 01:46 32.43453 -101.03242 42806 ft 319 kts 262°
2026-05-09 01:47 32.43079 -101.08485 42799 ft 320 kts 262°
2026-05-09 01:47 32.42705 -101.13701 42790 ft 320 kts 262°
2026-05-09 01:48 32.42327 -101.18954 42780 ft 320 kts 262°
2026-05-09 01:48 32.41946 -101.24203 42770 ft 320 kts 262°
2026-05-09 01:49 32.41565 -101.29431 42800 ft 320 kts 262°
2026-05-09 01:49 32.41180 -101.34680 42824 ft 321 kts 262°
2026-05-09 01:50 32.40791 -101.39944 42835 ft 321 kts 262°
2026-05-09 01:50 32.40400 -101.45223 42776 ft 322 kts 262°
2026-05-09 01:51 32.40005 -101.50505 42776 ft 322 kts 262°
2026-05-09 01:51 32.39609 -101.55792 42776 ft 323 kts 262°
2026-05-09 01:52 32.39212 -101.61050 42780 ft 323 kts 262°
2026-05-09 01:52 32.38809 -101.66351 42779 ft 323 kts 262°
2026-05-09 01:53 32.38405 -101.71652 42783 ft 324 kts 262°
2026-05-09 01:53 32.37997 -101.76966 42783 ft 325 kts 262°
2026-05-09 01:54 32.37585 -101.82300 42783 ft 325 kts 262°
2026-05-09 01:54 32.37171 -101.87642 42783 ft 326 kts 262°
2026-05-09 01:55 32.36757 -101.92948 42786 ft 326 kts 262°
2026-05-09 01:55 32.36338 -101.98290 42786 ft 326 kts 262°
2026-05-09 01:56 32.35916 -102.03641 42780 ft 327 kts 262°
2026-05-09 01:56 32.35490 -102.09003 42779 ft 327 kts 262°
2026-05-09 01:57 32.35062 -102.14369 42786 ft 328 kts 262°
2026-05-09 01:57 32.34632 -102.19742 42787 ft 328 kts 262°
2026-05-09 01:58 32.34197 -102.25127 42784 ft 329 kts 262°
2026-05-09 01:58 32.33761 -102.30512 42784 ft 329 kts 262°
2026-05-09 01:59 32.33322 -102.35900 42784 ft 329 kts 262°
2026-05-09 01:59 32.32882 -102.41267 42785 ft 330 kts 262°
2026-05-09 02:00 32.32437 -102.46671 42784 ft 331 kts 262°
2026-05-09 02:00 32.31989 -102.52087 42787 ft 331 kts 262°
2026-05-09 02:01 32.31537 -102.57514 42788 ft 332 kts 262°
2026-05-09 02:01 32.31083 -102.62948 42791 ft 332 kts 262°
2026-05-09 02:02 32.30625 -102.68394 42791 ft 333 kts 262°
2026-05-09 02:02 32.30167 -102.73808 42794 ft 333 kts 262°
2026-05-09 02:03 32.29704 -102.79262 42797 ft 334 kts 262°
2026-05-09 02:03 32.29236 -102.84735 42797 ft 335 kts 262°
2026-05-09 02:04 32.28766 -102.90216 42795 ft 335 kts 262°
2026-05-09 02:04 32.28292 -102.95708 42795 ft 336 kts 262°
2026-05-09 02:05 32.27818 -103.01175 42795 ft 337 kts 262°
2026-05-09 02:05 32.27338 -103.06686 42797 ft 337 kts 262°
2026-05-09 02:06 32.26854 -103.12202 42799 ft 338 kts 262°
2026-05-09 02:07 32.26123 -103.20500 42791 ft 339 kts 263°
2026-05-09 02:07 32.25631 -103.26038 42796 ft 339 kts 263°
2026-05-09 02:08 32.25140 -103.31545 42794 ft 339 kts 263°
2026-05-09 02:08 32.24643 -103.37096 42796 ft 340 kts 263°
2026-05-09 02:09 32.24142 -103.42656 42796 ft 340 kts 263°
2026-05-09 02:09 32.23639 -103.48219 42796 ft 341 kts 263°
2026-05-09 02:10 32.23140 -103.53780 42810 ft 339 kts 263°
2026-05-09 02:10 32.22620 -103.59331 42803 ft 340 kts 263°
2026-05-09 02:11 32.22115 -103.64897 42799 ft 341 kts 263°
2026-05-09 02:11 32.21603 -103.70430 42798 ft 341 kts 263°
2026-05-09 02:12 32.21086 -103.76009 42801 ft 342 kts 263°
2026-05-09 02:12 32.20565 -103.81595 42800 ft 342 kts 263°
2026-05-09 02:13 32.20043 -103.87180 42801 ft 342 kts 264°
2026-05-09 02:13 32.19517 -103.92767 42802 ft 343 kts 264°
2026-05-09 02:14 32.18987 -103.98367 42800 ft 343 kts 264°
2026-05-09 02:14 32.18455 -104.03971 42800 ft 343 kts 264°
2026-05-09 02:15 32.17920 -104.09573 42870 ft 343 kts 263°
2026-05-09 02:15 32.17383 -104.15177 42884 ft 343 kts 263°
2026-05-09 02:16 32.16847 -104.20742 42887 ft 344 kts 263°
2026-05-09 02:16 32.16304 -104.26349 42892 ft 344 kts 264°
2026-05-09 02:17 32.15757 -104.31974 42887 ft 344 kts 264°
2026-05-09 02:17 32.15208 -104.37584 42888 ft 344 kts 264°
2026-05-09 02:18 32.14658 -104.43190 42871 ft 344 kts 264°
2026-05-09 02:18 32.14109 -104.48761 42858 ft 344 kts 264°
2026-05-09 02:19 32.13553 -104.54377 42854 ft 344 kts 264°
2026-05-09 02:19 32.12995 -104.59980 42832 ft 343 kts 264°
2026-05-09 02:20 32.12435 -104.65581 42828 ft 343 kts 264°
2026-05-09 02:20 32.11872 -104.71182 42828 ft 344 kts 264°
2026-05-09 02:21 32.11310 -104.76755 42827 ft 344 kts 264°
2026-05-09 02:21 32.10743 -104.82357 42828 ft 344 kts 264°
2026-05-09 02:22 32.10172 -104.87970 42828 ft 344 kts 264°
2026-05-09 02:22 32.09597 -104.93584 42816 ft 345 kts 264°
2026-05-09 02:23 32.09019 -104.99210 42814 ft 345 kts 264°
2026-05-09 02:23 32.08439 -105.04836 42814 ft 346 kts 264°
2026-05-09 02:24 32.07859 -105.10434 42799 ft 346 kts 264°
2026-05-09 02:24 32.07273 -105.16067 42803 ft 346 kts 264°
2026-05-09 02:25 32.06685 -105.21701 42797 ft 346 kts 264°
2026-05-09 02:25 32.06097 -105.27296 42793 ft 346 kts 264°
2026-05-09 02:26 32.05503 -105.32925 42794 ft 346 kts 264°
2026-05-09 02:26 32.04907 -105.38563 42784 ft 346 kts 264°
2026-05-09 02:27 32.04309 -105.44191 42787 ft 346 kts 264°
2026-05-09 02:27 32.03707 -105.49823 42781 ft 347 kts 264°
2026-05-09 02:28 32.03102 -105.55458 42789 ft 347 kts 264°
2026-05-09 02:28 32.02496 -105.61093 42795 ft 347 kts 264°
2026-05-09 02:29 32.01890 -105.66697 42806 ft 347 kts 264°
2026-05-09 02:29 32.01277 -105.72338 42800 ft 347 kts 264°
2026-05-09 02:30 32.00662 -105.77971 42801 ft 347 kts 264°
2026-05-09 02:30 32.00045 -105.83613 42804 ft 347 kts 264°
2026-05-09 02:31 31.99530 -105.88295 42813 ft 347 kts 264°
2026-05-09 02:31 31.98807 -105.94843 42799 ft 347 kts 264°
2026-05-09 02:32 31.98182 -106.00478 42806 ft 347 kts 264°
2026-05-09 02:32 31.97657 -106.05193 42828 ft 347 kts 264°
2026-05-09 02:33 31.97028 -106.10826 42841 ft 347 kts 264°
2026-05-09 02:33 31.96399 -106.16431 42865 ft 347 kts 264°
2026-05-09 02:34 31.95764 -106.22074 42889 ft 347 kts 264°
2026-05-09 02:34 31.95330 -106.27725 42919 ft 346 kts 273°
2026-05-09 02:35 31.95912 -106.33347 42936 ft 345 kts 278°
2026-05-09 02:35 31.96553 -106.38953 42926 ft 345 kts 278°
2026-05-09 02:36 31.97213 -106.44523 42917 ft 345 kts 278°
2026-05-09 02:36 31.97864 -106.50127 42900 ft 345 kts 278°
2026-05-09 02:37 31.98518 -106.55742 42922 ft 346 kts 278°
2026-05-09 02:37 31.99168 -106.61370 42940 ft 347 kts 278°
2026-05-09 02:38 31.99817 -106.66995 42949 ft 347 kts 278°
2026-05-09 02:38 32.00463 -106.72619 42942 ft 346 kts 278°
2026-05-09 02:39 32.01106 -106.78244 42928 ft 346 kts 278°
2026-05-09 02:39 32.01747 -106.83872 42906 ft 346 kts 278°
2026-05-09 02:40 32.02385 -106.89496 42866 ft 346 kts 278°
2026-05-09 02:40 32.03021 -106.95120 42867 ft 346 kts 278°
2026-05-09 02:41 32.03654 -107.00747 42865 ft 346 kts 278°
2026-05-09 02:41 32.04280 -107.06334 42842 ft 346 kts 278°
2026-05-09 02:42 32.04907 -107.11950 42829 ft 346 kts 278°
2026-05-09 02:42 32.05532 -107.17573 42810 ft 346 kts 278°
2026-05-09 02:43 32.06155 -107.23199 42790 ft 346 kts 278°
2026-05-09 02:43 32.06777 -107.28836 42786 ft 346 kts 278°
2026-05-09 02:44 32.07396 -107.34477 42780 ft 346 kts 278°
2026-05-09 02:44 32.08008 -107.40075 42797 ft 346 kts 278°
2026-05-09 02:45 32.08622 -107.45708 42834 ft 346 kts 278°
2026-05-09 02:45 32.09233 -107.51347 42864 ft 346 kts 278°
2026-05-09 02:46 32.09842 -107.56984 42886 ft 346 kts 278°
2026-05-09 02:46 32.10448 -107.62622 42912 ft 347 kts 278°
2026-05-09 02:47 32.11053 -107.68275 42923 ft 347 kts 277°
2026-05-09 02:47 32.11657 -107.73938 42927 ft 348 kts 277°
2026-05-09 02:48 32.12253 -107.79558 42924 ft 347 kts 277°
2026-05-09 02:48 32.12553 -107.82388 42792 ft 347 kts 277°
2026-05-09 02:48 32.12851 -107.85214 42792 ft 347 kts 277°
2026-05-09 02:49 32.13446 -107.90869 42798 ft 347 kts 277°
2026-05-09 02:49 32.14039 -107.96523 42798 ft 347 kts 277°
2026-05-09 02:50 32.14629 -108.02180 42798 ft 347 kts 277°
2026-05-09 02:50 32.15216 -108.07838 42798 ft 347 kts 277°
2026-05-09 02:51 32.15801 -108.13494 42795 ft 347 kts 277°
2026-05-09 02:51 32.16384 -108.19152 42803 ft 347 kts 277°
2026-05-09 02:52 32.16960 -108.24777 42803 ft 347 kts 277°
2026-05-09 02:52 32.17537 -108.30436 42803 ft 347 kts 277°
2026-05-09 02:53 32.18112 -108.36098 42829 ft 347 kts 277°
2026-05-09 02:53 32.18686 -108.41767 42861 ft 347 kts 277°
2026-05-09 02:54 32.19256 -108.47434 42887 ft 348 kts 277°
2026-05-09 02:54 32.19824 -108.53108 42921 ft 348 kts 277°
2026-05-09 02:55 32.20391 -108.58794 42947 ft 348 kts 277°
2026-05-09 02:55 32.20953 -108.64447 42965 ft 349 kts 277°
2026-05-09 02:56 32.21515 -108.70139 42974 ft 349 kts 277°
2026-05-09 02:56 32.22076 -108.75838 42807 ft 349 kts 277°
2026-05-09 02:57 32.22634 -108.81543 42805 ft 350 kts 276°
2026-05-09 02:57 32.23187 -108.87217 42802 ft 350 kts 276°
2026-05-09 02:58 32.23741 -108.92931 42814 ft 350 kts 277°
2026-05-09 02:58 32.24294 -108.98659 42816 ft 350 kts 277°
2026-05-09 02:59 32.24843 -109.04380 42813 ft 351 kts 277°
2026-05-09 02:59 32.25392 -109.10116 42818 ft 351 kts 277°
2026-05-09 03:00 32.25937 -109.15848 42804 ft 351 kts 277°
2026-05-09 03:00 32.26481 -109.21593 42810 ft 352 kts 277°
2026-05-09 03:01 32.27162 -109.27273 42824 ft 351 kts 284°
2026-05-09 03:01 32.28529 -109.32819 42818 ft 351 kts 285°
2026-05-09 03:02 32.29873 -109.38372 42818 ft 351 kts 285°
2026-05-09 03:02 32.31232 -109.43924 42820 ft 352 kts 285°
2026-05-09 03:03 32.32582 -109.49483 42808 ft 352 kts 285°
2026-05-09 03:03 32.33934 -109.55046 42819 ft 352 kts 285°
2026-05-09 03:04 32.35283 -109.60612 42807 ft 352 kts 285°
2026-05-09 03:04 32.36630 -109.66183 42810 ft 352 kts 285°
2026-05-09 03:05 32.37976 -109.71763 42834 ft 353 kts 285°
2026-05-09 03:05 32.39311 -109.77306 42840 ft 353 kts 285°
2026-05-09 03:06 32.40655 -109.82900 42839 ft 353 kts 285°
2026-05-09 03:06 32.41997 -109.88499 42731 ft 356 kts 285°
2026-05-09 03:06 32.42682 -109.91361 42282 ft 366 kts 285°
2026-05-09 03:07 32.43378 -109.94270 41800 ft 368 kts 285°
2026-05-09 03:07 32.44075 -109.97188 41320 ft 369 kts 285°
2026-05-09 03:07 32.44775 -110.00125 40834 ft 370 kts 286°
2026-05-09 03:07 32.45475 -110.03062 40345 ft 372 kts 286°
2026-05-09 03:08 32.46170 -110.05979 39863 ft 373 kts 286°
2026-05-09 03:08 32.46875 -110.08945 39376 ft 375 kts 286°
2026-05-09 03:08 32.47582 -110.11923 38884 ft 377 kts 286°
2026-05-09 03:08 32.48292 -110.14915 38358 ft 378 kts 286°
2026-05-09 03:09 32.49006 -110.17926 37843 ft 380 kts 286°
2026-05-09 03:09 32.49721 -110.20950 37339 ft 382 kts 286°
2026-05-09 03:09 32.50439 -110.23990 36830 ft 383 kts 287°
2026-05-09 03:09 32.51158 -110.27033 36322 ft 385 kts 287°
2026-05-09 03:10 32.51879 -110.30089 35817 ft 386 kts 287°
2026-05-09 03:10 32.52602 -110.33161 35305 ft 387 kts 287°
2026-05-09 03:10 32.53323 -110.36228 34793 ft 386 kts 287°
2026-05-09 03:10 32.54044 -110.39296 34285 ft 388 kts 287°
2026-05-09 03:11 32.54772 -110.42391 33755 ft 391 kts 287°
2026-05-09 03:11 32.55501 -110.45502 33206 ft 392 kts 287°
2026-05-09 03:11 32.56232 -110.48627 32692 ft 393 kts 287°
2026-05-09 03:11 32.56960 -110.51741 32170 ft 392 kts 288°
2026-05-09 03:12 32.57690 -110.54863 31655 ft 394 kts 288°
2026-05-09 03:12 32.58420 -110.57992 31129 ft 396 kts 288°
2026-05-09 03:12 32.59158 -110.61158 30609 ft 400 kts 287°
2026-05-09 03:12 32.59901 -110.64356 30075 ft 403 kts 287°
2026-05-09 03:13 32.61387 -110.70760 28967 ft 402 kts 288°
2026-05-09 03:13 32.62130 -110.73962 28437 ft 403 kts 287°
2026-05-09 03:13 32.62874 -110.77186 27909 ft 406 kts 287°
2026-05-09 03:14 32.63609 -110.80360 27384 ft 401 kts 287°
2026-05-09 03:14 32.64344 -110.83545 26853 ft 399 kts 287°
2026-05-09 03:14 32.65073 -110.86711 26334 ft 395 kts 287°
2026-05-09 03:14 32.65794 -110.89838 25813 ft 391 kts 287°
2026-05-09 03:15 32.66511 -110.92952 25308 ft 392 kts 286°
2026-05-09 03:15 32.67309 -110.96027 24799 ft 388 kts 292°
2026-05-09 03:15 32.68522 -110.98859 24300 ft 382 kts 302°
2026-05-09 03:15 32.70107 -111.01367 23792 ft 379 kts 312°
2026-05-09 03:16 32.71894 -111.03649 23267 ft 375 kts 313°
2026-05-09 03:16 32.73662 -111.05928 22757 ft 375 kts 312°
2026-05-09 03:16 32.75427 -111.08218 22265 ft 376 kts 313°
2026-05-09 03:16 32.77188 -111.10502 21773 ft 373 kts 313°
2026-05-09 03:17 32.78933 -111.12766 21285 ft 371 kts 313°
2026-05-09 03:17 32.80686 -111.15030 20780 ft 372 kts 314°
2026-05-09 03:17 32.82441 -111.17294 20289 ft 372 kts 313°
2026-05-09 03:17 32.84163 -111.19535 19802 ft 372 kts 314°
2026-05-09 03:18 32.85914 -111.21801 19309 ft 371 kts 314°
2026-05-09 03:18 32.87658 -111.24056 18819 ft 369 kts 314°
2026-05-09 03:18 32.89382 -111.26303 18337 ft 366 kts 314°
2026-05-09 03:18 32.91100 -111.28543 17820 ft 365 kts 315°
2026-05-09 03:19 32.92807 -111.30755 17424 ft 361 kts 315°
2026-05-09 03:19 32.93957 -111.32246 17148 ft 360 kts 315°
2026-05-09 03:19 32.95618 -111.34409 16683 ft 357 kts 315°
2026-05-09 03:19 32.97283 -111.36578 16186 ft 352 kts 315°
2026-05-09 03:20 32.98873 -111.38654 15925 ft 327 kts 315°
2026-05-09 03:20 33.00390 -111.40631 15216 ft 322 kts 315°
2026-05-09 03:20 33.01891 -111.42582 14911 ft 319 kts 315°
2026-05-09 03:20 33.03219 -111.44706 14496 ft 321 kts 302°
2026-05-09 03:21 33.04189 -111.47105 14071 ft 318 kts 296°
2026-05-09 03:21 33.05070 -111.49510 13660 ft 316 kts 298°
2026-05-09 03:21 33.06043 -111.51845 13205 ft 312 kts 301°
2026-05-09 03:21 33.07049 -111.54128 12794 ft 310 kts 300°
2026-05-09 03:22 33.08009 -111.56411 12420 ft 306 kts 299°
2026-05-09 03:22 33.08938 -111.58676 12024 ft 302 kts 299°
2026-05-09 03:22 33.09868 -111.60911 11631 ft 300 kts 299°
2026-05-09 03:22 33.10799 -111.63129 11240 ft 297 kts 299°
2026-05-09 03:23 33.11716 -111.65325 10856 ft 294 kts 299°
2026-05-09 03:23 33.12621 -111.67497 10463 ft 290 kts 298°
2026-05-09 03:23 33.13505 -111.69627 10086 ft 289 kts 298°
2026-05-09 03:23 33.14395 -111.71766 9707 ft 287 kts 298°
2026-05-09 03:24 33.15277 -111.73880 9313 ft 283 kts 298°
2026-05-09 03:24 33.16152 -111.75985 8942 ft 281 kts 298°
2026-05-09 03:24 33.17018 -111.78069 8575 ft 279 kts 298°
2026-05-09 03:24 33.17878 -111.80140 8211 ft 278 kts 297°
2026-05-09 03:25 33.18734 -111.82203 7842 ft 276 kts 297°
2026-05-09 03:25 33.19581 -111.84245 7483 ft 273 kts 297°
2026-05-09 03:25 33.20423 -111.86276 7124 ft 272 kts 297°
2026-05-09 03:25 33.21262 -111.88299 6765 ft 270 kts 297°
2026-05-09 03:26 33.22087 -111.90296 6410 ft 267 kts 297°
2026-05-09 03:26 33.22902 -111.92264 6046 ft 263 kts 297°
2026-05-09 03:26 33.23710 -111.94212 5690 ft 261 kts 297°
2026-05-09 03:26 33.24702 -111.96012 5344 ft 260 kts 308°
2026-05-09 03:27 33.26015 -111.97504 5011 ft 261 kts 320°
2026-05-09 03:27 33.27579 -111.98623 4978 ft 265 kts 331°
2026-05-09 03:27 33.29318 -111.99311 4961 ft 268 kts 344°
2026-05-09 03:27 33.31178 -111.99624 4961 ft 271 kts 348°
2026-05-09 03:28 33.33042 -111.99925 4967 ft 270 kts 347°
2026-05-09 03:28 33.34905 -112.00236 4972 ft 270 kts 347°
2026-05-09 03:28 33.36769 -112.00544 4967 ft 270 kts 348°
2026-05-09 03:28 33.38640 -112.00839 4968 ft 272 kts 348°
2026-05-09 03:29 33.40512 -112.01128 4965 ft 270 kts 348°
2026-05-09 03:29 33.42373 -112.01433 4950 ft 271 kts 348°
2026-05-09 03:29 33.44245 -112.01739 4697 ft 270 kts 348°
2026-05-09 03:29 33.46102 -112.02035 4358 ft 269 kts 348°
2026-05-09 03:30 33.47956 -112.02333 4016 ft 268 kts 347°
2026-05-09 03:30 33.49741 -112.02840 3967 ft 264 kts 340°
2026-05-09 03:30 33.51536 -112.03407 3971 ft 268 kts 341°
2026-05-09 03:30 33.53334 -112.03949 3969 ft 264 kts 341°
2026-05-09 03:31 33.55119 -112.04496 3963 ft 266 kts 341°
2026-05-09 03:31 33.56907 -112.05051 3992 ft 264 kts 341°
2026-05-09 03:31 33.58675 -112.05596 3994 ft 268 kts 341°
2026-05-09 03:31 33.60468 -112.06154 4001 ft 261 kts 341°
2026-05-09 03:32 33.62262 -112.06712 4000 ft 268 kts 341°
2026-05-09 03:32 33.64076 -112.07272 3990 ft 267 kts 341°
2026-05-09 03:32 33.65848 -112.07814 3991 ft 266 kts 341°
2026-05-09 03:32 33.67634 -112.08394 3991 ft 268 kts 345°
2026-05-09 03:33 33.69525 -112.08403 3991 ft 277 kts
2026-05-09 03:33 33.71353 -112.07744 4031 ft 267 kts 22°
2026-05-09 03:33 33.72842 -112.06564 3998 ft 246 kts 39°
2026-05-09 03:33 33.73924 -112.05091 3993 ft 225 kts 53°
2026-05-09 03:34 33.74617 -112.03471 3991 ft 214 kts 68°
2026-05-09 03:34 33.74976 -112.01758 3996 ft 210 kts 82°
2026-05-09 03:34 33.75003 -112.00012 3998 ft 213 kts 96°
2026-05-09 03:34 33.74693 -111.98274 3991 ft 212 kts 111°
2026-05-09 03:35 33.74054 -111.96661 3994 ft 215 kts 125°
2026-05-09 03:35 33.73223 -111.95197 3962 ft 205 kts 128°
2026-05-09 03:35 33.72469 -111.93845 3998 ft 184 kts 128°
2026-05-09 03:35 33.71816 -111.92671 3989 ft 160 kts 128°
2026-05-09 03:36 33.71202 -111.91588 3926 ft 159 kts 129°
2026-05-09 03:36 33.70579 -111.90491 3700 ft 158 kts 129°
2026-05-09 03:36 33.69926 -111.89451 3384 ft 153 kts 139°
2026-05-09 03:36 33.69129 -111.88642 3170 ft 148 kts 150°
2026-05-09 03:37 33.68312 -111.87872 2999 ft 151 kts 149°
2026-05-09 03:37 33.67404 -111.87383 2931 ft 139 kts 175°
2026-05-09 03:37 33.66449 -111.87276 2727 ft 135 kts 191°
2026-05-09 03:37 33.65575 -111.87557 2530 ft 125 kts 212°
2026-05-09 03:38 33.64868 -111.88150 2324 ft 122 kts 222°
2026-05-09 03:38 33.64247 -111.88799 2013 ft 116 kts 224°
2026-05-09 03:38 33.63658 -111.89466 1757 ft 117 kts 223°
2026-05-09 03:38 33.63076 -111.90149 1538 ft 115 kts 225°
2026-05-09 03:39 33.62568 -111.90734 1491 ft 87 kts 225°
2026-05-09 03:39 33.62298 -111.91043 1474 ft 37 kts 224°
2026-05-09 03:39 33.62157 -111.91207 1469 ft 21 kts 224°
2026-05-09 03:39 33.62051 -111.91329 1463 ft 21 kts 223°
2026-05-09 03:40 33.61969 -111.91430 1463 ft 9 kts 257°
2026-05-09 03:40 33.61982 -111.91465 1458 ft 3 kts 316°
2026-05-09 03:40 33.62001 -111.91487 1462 ft 7 kts 315°
2026-05-09 03:40 33.62049 -111.91546 1461 ft 11 kts 313°
2026-05-09 03:41 33.62077 -111.91613 1460 ft 8 kts 231°
2026-05-09 03:41 33.62040 -111.91630 1459 ft 0 kts 129°